Location: Newark
(46.7000°N, 60.6000°W)
Time: 12:37:36
(UTC+00:00)

A-11 Canister half - Pass Details

Date: 28 October 2020
Orbit: 1525 x 1684 km, 47.3° (Epoch: 01 December)

Event Time Altitude Azimuth Distance (km) Brightness Sun altitude
Rises 02:51:09 0° 286° (WNW) 4,678 11.8 -54.6°
Enters shadow 02:54:26 - 272° (W) 3,980 11.3 -54.8°
Reaches altitude 10° 02:56:14 10° 263° (W) 3,694 - -54.9°
Maximum altitude 03:00:18 14° 236° (SW) 3,407 - -55.2°
Drops below altitude 10° 03:04:25 10° 209° (SSW) 3,709 - -55.4°
Sets 03:09:35 0° 186° (S) 4,713 - -55.7°
